Location: McFarlands Corners
(41.4117°N, 81.3382°W)
Time: 13:28:36
(UTC+00:00)

Courier 1B Rocket - Pass Details

Date: 21 February 2026
Orbit: 920 x 1201 km, 28.2° (Epoch: 10 March)

Event Time Altitude Azimuth Distance (km) Brightness Sun altitude
Rises 23:49:05 0° 235° (SW) 3,556 9.1 -8.7°
Reaches altitude 10° 23:52:16 10° 221° (SW) 2,602 8.0 -9.3°
Maximum altitude 23:56:55 22° 172° (S) 1,877 6.5 -10.1°
Drops below altitude 10° 00:01:37 10° 123° (ESE) 2,629 6.8 -11.0°
Enters shadow 00:02:12 - 120° (ESE) 2,795 6.9 -11.1°
Sets 00:04:50 0° 109° (ESE) 3,602 - -11.6°
